This is the latest recevied weather packets stored in our database for station/object DJ6OI-23. If no packets are shown the sender has not sent any weather packets the latest 10 day(s).
| Time | Temp. | Humidity | Pressure | Rain* | Wind** | Luminosity | Snow |
|---|---|---|---|---|---|---|---|
| 1777216400 | 20.56° C | 27% | 1003.4 hPa | 0 mm | - | - | - |
| 1777215465 | 20° C | 27% | 1003.4 hPa | 0 mm | - | - | - |
| 1777214530 | 18.89° C | 28% | 1003.4 hPa | 0 mm | - | - | - |
| 1777213595 | 18.89° C | 28% | 1003.5 hPa | 0 mm | - | - | - |
| 1777211725 | 18.89° C | 30% | 1003.8 hPa | 0 mm | - | - | - |
| 1777210790 | 18.33° C | 30% | 1003.9 hPa | 0 mm | - | - | - |
| 1777209855 | 17.78° C | 31% | 1003.9 hPa | 0 mm | - | - | - |
| 1777208920 | 17.22° C | 33% | 1004 hPa | 0 mm | - | - | - |
| 1777207986 | 16.11° C | 34% | 1004.1 hPa | 0 mm | - | - | - |
| 1777207050 | 15.56° C | 36% | 1004.2 hPa | 0 mm | - | - | - |
| 1777206116 | 15.56° C | 38% | 1004.3 hPa | 0 mm | - | - | - |
| 1777205181 | 15° C | 38% | 1004.5 hPa | 0 mm | - | - | - |
| 1777204246 | 14.44° C | 39% | 1004.6 hPa | 0 mm | - | - | - |
| 1777203311 | 14.44° C | 40% | 1004.7 hPa | 0 mm | - | - | - |
| 1777202376 | 13.89° C | 41% | 1004.7 hPa | 0 mm | - | - | - |
| 1777201441 | 13.33° C | 41% | 1004.7 hPa | 0 mm | - | - | - |
| 1777200506 | 13.33° C | 41% | 1004.9 hPa | 0 mm | - | - | - |
| 1777199571 | 12.78° C | 42% | 1004.9 hPa | 0 mm | - | - | - |
| 1777198636 | 12.78° C | 44% | 1005 hPa | 0 mm | - | - | - |
| 1777197701 | 12.22° C | 48% | 1005 hPa | 0 mm | - | - | - |
| 1777196767 | 11.67° C | 50% | 1005 hPa | 0 mm | - | - | - |
| 1777195832 | 11.11° C | 54% | 1005 hPa | 0 mm | - | - | - |
| 1777194897 | 11.11° C | 56% | 1005 hPa | 0 mm | - | - | - |
| 1777193027 | 10° C | 59% | 1005.1 hPa | 0 mm | - | - | - |
| 1777192092 | 10° C | 61% | 1005 hPa | 0 mm | - | - | - |
* Rain latest hour (hover to see other rain measurements)
** Current wind speed in m/s (hover to see current wind gust speed)